Flag for Germany Past Weather in Gronau (Westfalen), North Rhine-Westphalia, Germany — Yesterday and Last 2 Weeks

Now
69 °F

Overcast.


Feels Like: 69 °F
Forecast: 57 / 65 °F
Wind: 3 mph from Southeast

Location: Twenthe

Current Time: Jun 28, 2016 at 3:21:41 PM

Latest Report: Jun 28, 2016 at 2:00 PM


Visibility: 16 mi

Pressure: 30.03 "Hg

Humidity: 56%

Dew Point: 53 °F

Location of Gronau (Westfalen)Location

Past Weather in Gronau (Westfalen) — Graph

°F

Gronau (Westfalen) Temperature Yesterday

Maximum temperature yesterday: 63 °F (at 12:00 PM)
Minimum temperature yesterday: 53 °F (at 11:00 PM)
Average temperature yesterday: 58 °F

High & Low Weather Summary for the Past Weeks

 TemperatureHumidityPressure
High87 °F (Jun 23, 6:00 PM)100% (Jun 15, 2:00 AM)30.25 "Hg (Jun 15, 2:00 AM)
Low46 °F (Jun 28, 4:00 AM)45% (Jun 16, 6:00 PM)29.44 "Hg (Jun 14, 4:00 PM)
Average61 °F86%29.92 "Hg
* Reported Jun 13 2:00 PM — Jun 28 2:00 PM, Gronau (Westfalen), Weather by CustomWeather, © 2016

Note: Actual official high and low records may vary slightly from our data, if they occured in-between our weather recording intervals... More about our weather records

Advertising

Gronau (Westfalen) Weather History for the Previous 24 Hours

Scroll right to see more
 ConditionsComfort  
Time TempWeatherWind HumidityBarometerVisibility
2:00 PM
Tue, Jun 28
69 °FOvercast.3 mph56%30.03 "Hg16 mi
1:00 PM69 °FPassing clouds.3 mph59%30.05 "Hg9 mi
12:00 PM67 °FPassing clouds.2 mph56%30.06 "Hg7 mi
11:00 AM65 °FPartly sunny.2 mph61%30.07 "Hg12 mi
10:00 AM64 °FOvercast.2 mph70%30.09 "Hg11 mi
8:00 AM56 °FScattered clouds.1 mph93%30.09 "Hg7 mi
7:00 AM52 °FScattered clouds.No wind100%30.09 "Hg2 mi
6:00 AM47 °FFog.1 mph99%30.09 "Hg0 mi
5:00 AM47 °FFog.1 mph99%30.09 "Hg1 mi
4:00 AM46 °FFog.1 mph100%30.09 "Hg0 mi
3:00 AM49 °FFog.No wind100%30.10 "Hg0 mi
2:00 AM48 °FOvercast.1 mph100%30.10 "Hg0 mi
1:00 AM49 °FOvercast.1 mph100%30.10 "Hg0 mi
12:00 AM51 °FFog.No wind100%30.10 "Hg2 mi
11:00 PM
Mon, Jun 27
53 °FFog.1 mph100%30.09 "Hg4 mi
10:00 PM56 °FOvercast.1 mph86%30.07 "Hg28 mi
9:00 PM60 °FPassing clouds.5 mph78%30.05 "Hg25 mi
8:00 PM62 °FOvercast.2 mph91%30.04 "Hg19 mi
7:00 PM61 °FOvercast.3 mph93%30.03 "Hg15 mi
6:00 PM61 °FHeavy rain. Low clouds.5 mph99%30.02 "Hg2 mi
5:00 PM62 °FSprinkles. Low clouds.5 mph96%30.02 "Hg4 mi
4:00 PM61 °FLow clouds.5 mph97%30.03 "Hg5 mi
3:00 PM60 °FLow clouds.7 mph94%30.03 "Hg2 mi
Weather by CustomWeather, © 2016

See weather overviewHow to use our weather pages